Home   Weather   Vaasa   Past weeks

Flag for Finland Past Weather in Vaasa, Finland — Yesterday and Last 2 Weeks

Now
64 °F

Passing clouds.


Feels Like: 64 °F
Forecast: 49 / 62 °F
Wind: 10 mph from North

Location: Vaasa Airport

Current Time: Jul 22, 2017 at 3:57:26 pm

Latest Report: Jul 22, 2017 at 3:20 pm


Visibility: N/A

Pressure: 30.15 "Hg

Humidity: 46%

Dew Point: 43 °F

Location of VaasaLocation

Past Weather in Vaasa — Graph

°F

Vaasa Temperature Yesterday

Maximum temperature yesterday: 63 °F (at 4:50 pm)
Minimum temperature yesterday: 50 °F (at 12:20 am)
Average temperature yesterday: 56 °F

High & Low Weather Summary for the Past Weeks

 TemperatureHumidityPressure
High73 °F (Jul 16, 3:20 pm)100% (Jul 10, 4:20 am)30.15 "Hg (Jul 10, 4:20 am)
Low43 °F (Jul 8, 3:20 am)30% (Jul 7, 3:50 pm)29.47 "Hg (Jul 12, 11:20 am)
Average58 °F74%29.80 "Hg
* Reported Jul 7 2:20 pm — Jul 22 2:20 pm, Vaasa. Weather by CustomWeather, © 2017

Note: Actual official high and low records may vary slightly from our data, if they occured in-between our weather recording intervals... More about our weather records

Advertising

Vaasa Weather History for the Previous 24 Hours

Scroll right to see more
 ConditionsComfort  
Time TempWeatherWind HumidityBarometerVisibility
2:20 pm
Sat, Jul 22
63 °FPassing clouds.12 mph52%30.15 "HgN/A
1:50 pm64 °FPassing clouds.10 mph52%30.15 "HgN/A
1:20 pm64 °FPassing clouds.12 mph52%30.15 "HgN/A
12:50 pm63 °FPartly sunny.12 mph59%30.15 "HgN/A
12:20 pm63 °FPartly sunny.9 mph59%30.15 "HgN/A
11:50 am63 °FScattered clouds.9 mph56%30.15 "HgN/A
11:20 am63 °FPassing clouds.9 mph59%30.15 "HgN/A
10:50 am61 °FPartly sunny.7 mph72%30.15 "HgN/A
10:20 am61 °FOvercast.8 mph68%30.15 "HgN/A
9:50 am61 °FOvercast.8 mph68%30.12 "HgN/A
9:20 am59 °FOvercast.7 mph82%30.12 "HgN/A
8:50 am57 °FOvercast.6 mph88%30.12 "HgN/A
7:50 am55 °FOvercast.2 mph88%30.12 "HgN/A
7:20 am55 °FOvercast.2 mph88%30.12 "HgN/A
6:50 am54 °FOvercast.1 mph94%30.12 "HgN/A
6:20 am54 °FOvercast.3 mph94%30.12 "HgN/A
5:50 am52 °FOvercast.2 mph94%30.12 "HgN/A
5:20 am52 °FOvercast.3 mph94%30.12 "HgN/A
4:50 am52 °FOvercast.3 mph94%30.12 "HgN/A
4:20 am50 °FMore clouds than sun.2 mph94%30.12 "HgN/A
3:50 am50 °FPassing clouds.3 mph94%30.12 "HgN/A
3:20 am50 °FPassing clouds.3 mph94%30.09 "HgN/A
2:50 am50 °FPassing clouds.3 mph94%30.09 "Hg5 mi
1:50 am50 °FFog.3 mph94%30.09 "Hg2 mi
1:20 am50 °FPassing clouds.3 mph94%30.09 "HgN/A
12:50 am52 °FClear.2 mph94%30.09 "Hg10 mi
12:20 am50 °FClear.5 mph94%30.09 "Hg10 mi
11:50 pm
Fri, Jul 21
52 °FClear.2 mph94%30.09 "Hg10 mi
11:20 pm52 °FClear.3 mph94%30.09 "Hg10 mi
10:50 pm54 °FSunny.6 mph88%30.09 "Hg10 mi
10:20 pm55 °FSunny.6 mph88%30.09 "Hg10 mi
9:50 pm57 °FSunny.8 mph82%30.07 "Hg10 mi
9:20 pm59 °FSunny.8 mph77%30.07 "Hg10 mi
8:50 pm61 °FSunny.9 mph77%30.07 "Hg10 mi
8:20 pm63 °FPassing clouds.8 mph73%30.07 "HgN/A
7:50 pm63 °FPassing clouds.9 mph73%30.07 "HgN/A
7:20 pm63 °FPassing clouds.9 mph73%30.04 "HgN/A
6:50 pm63 °FPassing clouds.12 mph73%30.04 "HgN/A
6:20 pm61 °FPassing clouds.13 mph77%30.04 "HgN/A
5:20 pm63 °FPassing clouds.12 mph73%30.04 "HgN/A
4:50 pm63 °FPassing clouds.10 mph68%30.04 "HgN/A
4:20 pm59 °FScattered clouds.12 mph77%30.04 "HgN/A
3:50 pm59 °FPartly sunny.12 mph82%30.04 "HgN/A
3:20 pm59 °FPartly sunny.13 mph82%30.04 "HgN/A
Weather by CustomWeather, © 2017

See weather overviewHow to use our weather pages